Погода в Совдозеро

Россия / Республика Карелия     62°48′24″N   33°07′10″E
темп.,
°C
ветер,
м/с
пор.,
м/с
влажн.,
%
обл.,
%
осадки,
мм/ч
давл.,
гПа
погр.,
м
28 сентября, вт
вт2800:00+5ююз11939 0.0 103310
03:00+5зюз11945 0.0 103410
06:00+4зюз119445 0.0 103410
09:00+7зюз128544 0.0 1034115
12:00+11зюз22665 0.0 1034498
15:00+13зюз12585 0.0 1034742
18:00+9зюз11785 0.0 103410
21:00+7з118939 0.0 103513
29 сентября, ср
ср2900:00+6з22935 0.0 103617
03:00+5з22955 0.0 103642
06:00+4з23966 0.0 103663
09:00+7зсз24856 0.0 1036158
12:00+11з23645 0.0 1036518
15:00+13з225828 0.0 1035732
18:00+9з117998 0.0 103411
21:00+6з119056 0.0 103515
30 сентября, чт
чт3000:00+5з229493 0.0 103518
03:00+5з229659 0.0 103527
06:00+4з229771 0.0 103533
09:00+6з23869 0.0 1035147
12:00+10з23676 0.0 1034567
15:00+12зюз23585 0.0 1033812
18:00+7юз11785 0.0 103310
21:00+5юз11905 0.0 103311
1 октября, пт
пт100:00+4юз12945 0.0 103315
03:00+3ююз11945 0.0 103212
06:00+2ююз23955 0.0 103239
09:00+5ююз27875 0.0 1031211
12:00+10ююз36655 0.0 1030643
15:00+11юз45637 0.0 1029912
18:00+8ююз2682100 0.0 1028164
21:00+8юз3885100 0.0 1029428
2 октября, сб
сб200:00+7юз279182 0.0 1029365
03:00+7зюз2584100 0.0 1029349
06:00+7ю2585100 0.0 1028155
09:00+7ю368652 0.0 1028303
12:00+10ююз467250 0.0 1027786
15:00+12ююз466565 0.0 10271100
18:00+10ю3879100 0.0 1026558
21:00+6ю299483 0.0 1027296